This is the latest recevied weather packets stored in our database for station/object K5YNC. If no packets are shown the sender has not sent any weather packets the latest 1 day(s).
| Time | Temp. | Humidity | Pressure | Rain* | Wind** | Luminosity | Snow |
|---|---|---|---|---|---|---|---|
| 1778023985 | 18.33° C | 74% | 1008.9 hPa | 0 mm | 0.89 m/s, 329° | 56 W/m² | - |
| 1778023682 | 18.33° C | 73% | 1009.2 hPa | 0 mm | 1.34 m/s, 279° | 60 W/m² | - |
| 1778023379 | 18.33° C | 74% | 1009 hPa | 0 mm | 0.89 m/s, 265° | 62 W/m² | - |
| 1778023075 | 18.89° C | 74% | 1008.7 hPa | 0 mm | 3.13 m/s, 289° | 59 W/m² | - |
| 1778022774 | 18.89° C | 73% | 1008.8 hPa | 0 mm | 1.79 m/s, 311° | 72 W/m² | - |
| 1778022472 | 18.89° C | 73% | 1008.8 hPa | 0 mm | 1.34 m/s, 347° | 95 W/m² | - |
| 1778022169 | 18.89° C | 73% | 1008.9 hPa | 0 mm | 0.89 m/s, 41° | 122 W/m² | - |
| 1778021865 | 19.44° C | 72% | 1008.8 hPa | 0 mm | 1.79 m/s, 216° | 116 W/m² | - |
| 1778021563 | 19.44° C | 72% | 1008.5 hPa | 0 mm | 1.79 m/s, 349° | 140 W/m² | - |
| 1778021257 | 20° C | 72% | 1008.8 hPa | 0 mm | 0.89 m/s, 278° | 142 W/m² | - |
| 1778020955 | 20° C | 72% | 1008.6 hPa | 0 mm | 1.34 m/s, 313° | 156 W/m² | - |
| 1778020653 | 20° C | 71% | 1008.6 hPa | 0 mm | 2.24 m/s, 0° | 138 W/m² | - |
| 1778020349 | 20° C | 71% | 1008.6 hPa | 0 mm | 1.79 m/s, 342° | 149 W/m² | - |
| 1778020045 | 20.56° C | 71% | 1008.6 hPa | 0 mm | 1.34 m/s, 356° | 159 W/m² | - |
| 1778019741 | 20.56° C | 70% | 1008.6 hPa | 0 mm | 1.34 m/s, 322° | 180 W/m² | - |
| 1778019439 | 20.56° C | 70% | 1008.6 hPa | 0 mm | 0.89 m/s, 327° | 178 W/m² | - |
| 1778019135 | 20.56° C | 70% | 1008.4 hPa | 0 mm | 1.34 m/s, 329° | 175 W/m² | - |
| 1778018832 | 21.11° C | 70% | 1008.3 hPa | 0 mm | 1.79 m/s, 269° | 183 W/m² | - |
| 1778018530 | 21.11° C | 71% | 1008.1 hPa | 0 mm | 0.89 m/s, 339° | 174 W/m² | - |
| 1778018228 | 21.11° C | 69% | 1008 hPa | 0 mm | 1.79 m/s, 313° | 182 W/m² | - |
| 1778017925 | 21.11° C | 70% | 1008.1 hPa | 0 mm | 0.89 m/s, 190° | 203 W/m² | - |
| 1778017623 | 21.67° C | 70% | 1008 hPa | 0 mm | 1.79 m/s, 264° | 200 W/m² | - |
| 1778017320 | 21.67° C | 70% | 1008.1 hPa | 0 mm | 1.79 m/s, 3° | 171 W/m² | - |
| 1778017017 | 22.22° C | 69% | 1007.7 hPa | 0 mm | 1.34 m/s, 318° | 232 W/m² | - |
| 1778016714 | 22.78° C | 67% | 1007.9 hPa | 0 mm | 1.34 m/s, 304° | 192 W/m² | - |
* Rain latest hour (hover to see other rain measurements)
** Current wind speed in m/s (hover to see current wind gust speed)